Fullerton, CA

3:46 AM PDT on June 25, 2018 (GMT -0700)
Fullerton Municipal

Weather History for KFUL - October, 2017

Change the Weather History Date:

Wednesday, October 11, 2017

  Actual Average Record
Temperature  
Mean Temperature 69 °F 69 °F  
Max Temperature 81 °F 79 °F 100 °F (2015)
Min Temperature 57 °F 59 °F 51 °F (2008)
Degree Days  
Heating Degree Days 0 0  
Month to date heating degree days 0 0  
Since 1 July heating degree days 0 1  
Cooling Degree Days 4 4  
Month to date cooling degree days 78 55  
Year to date cooling degree days 1610 1173  
Growing Degree Days 19 (Base 50)    
Moisture  
Dew Point 57 °F    
Average Humidity 66    
Maximum Humidity 90    
Minimum Humidity 42    
Precipitation  
Precipitation 0.00 in 0.02 in 0.14 in (2012)
Month to date precipitation T 0.15  
Year to date precipitation 11.18 10.13  
Sea Level Pressure  
Sea Level Pressure 29.87 in    
Wind  
Wind Speed 2 mph (SSW)    
Max Wind Speed 10 mph    
Max Gust Speed 14 mph    
Visibility 9 miles    
Events      
T = Trace of Precipitation, MM = Missing Value Source: NWS Daily Summary

Daily Weather History Graph

Daily Weather History Graph

Search for Another Location

Airport or City:

Astronomy

Oct. 11, 2017 Rise Set
Actual Time 6:54 AM PDT 6:22 PM PDT
Civil Twilight 6:28 AM PDT 6:47 PM PDT
Nautical Twilight 6:00 AM PDT 7:16 PM PDT
Astronomical Twilight 5:31 AM PDT 7:45 PM PDT
Moon 11:41 PM PDT (10/11) 1:04 PM PDT (10/11)
Length of Visible Light 12h 18m
Length of Day
11h 28m
Waning Gibbous, 58% of the Moon is Illuminated
Oct 11
Waning Gibbous
Oct 12
Last Quarter
Oct 19
New
Oct 27
First Quarter
Nov 3
Full

Hourly Weather History & Observations

Time (PDT) Temp. Heat Index Dew Point Humidity Pressure Visibility Wind Dir Wind Speed Gust Speed Precip Events Conditions
12:53 AM 63.0 °F - 55.9 °F 78% 29.87 in 10.0 mi Calm Calm - N/A   Clear
1:53 AM 62.1 °F - 57.0 °F 84% 29.87 in 10.0 mi Calm Calm - N/A   Clear
2:53 AM 61.0 °F - 57.0 °F 87% 29.86 in 10.0 mi Calm Calm - N/A   Clear
3:53 AM 61.0 °F - 55.9 °F 83% 29.86 in 10.0 mi East 3.5 mph - N/A   Clear
4:53 AM 60.1 °F - 53.1 °F 78% 29.85 in 10.0 mi Calm Calm - N/A   Clear
5:53 AM 57.9 °F - 53.1 °F 84% 29.86 in 10.0 mi Calm Calm - N/A   Clear
6:53 AM 57.0 °F - 54.0 °F 89% 29.86 in 9.0 mi Calm Calm - N/A   Clear
7:53 AM 61.0 °F - 53.1 °F 75% 29.88 in 10.0 mi Calm Calm - N/A   Clear
8:06 AM 62.1 °F - 54.0 °F 75% 29.89 in 9.0 mi Calm Calm - N/A   Partly Cloudy
8:53 AM 66.0 °F - 57.9 °F 75% 29.91 in 6.0 mi Calm Calm - N/A   Haze
9:53 AM 69.1 °F - 60.1 °F 73% 29.91 in 6.0 mi Calm Calm - N/A   Haze
10:53 AM 73.0 °F - 59.0 °F 61% 29.90 in 7.0 mi Variable 3.5 mph - N/A   Clear
11:53 AM 75.0 °F - 57.9 °F 55% 29.89 in 9.0 mi Calm Calm - N/A   Clear
12:53 PM 79.0 °F - 57.0 °F 47% 29.88 in 10.0 mi Variable 4.6 mph - N/A   Clear
1:53 PM 79.0 °F - 55.9 °F 45% 29.85 in 10.0 mi Variable 4.6 mph - N/A   Clear
2:53 PM 81.0 °F 80.7 °F 55.0 °F 41% 29.84 in 10.0 mi Calm Calm - N/A   Clear
3:53 PM 78.1 °F - 59.0 °F 52% 29.84 in 10.0 mi SW 5.8 mph - N/A   Clear
4:53 PM 75.9 °F - 59.0 °F 56% 29.84 in 10.0 mi Variable 5.8 mph - N/A   Clear
5:53 PM 72.0 °F - 57.9 °F 61% 29.84 in 10.0 mi South 6.9 mph - N/A   Clear
6:53 PM 69.1 °F - 57.9 °F 68% 29.85 in 10.0 mi South 4.6 mph - N/A   Clear
7:53 PM 66.9 °F - 55.9 °F 68% 29.86 in 10.0 mi West 4.6 mph - N/A   Clear
8:53 PM 64.9 °F - 57.9 °F 78% 29.87 in 10.0 mi Calm Calm - N/A   Clear
9:53 PM 64.9 °F - 57.9 °F 78% 29.88 in 10.0 mi Calm Calm - N/A   Clear
10:53 PM 63.0 °F - 57.9 °F 84% 29.88 in 10.0 mi Calm Calm - N/A   Clear
11:53 PM 62.1 °F - 57.0 °F 84% 29.89 in 10.0 mi Calm Calm - N/A   Clear